{"data":{"norad_id":87245,"intl_designator":"","name":"UNKNOWN","alt_names":[],"object_type":"UNKNOWN","status":"UNKNOWN","operator":null,"country":null,"launch_date":null,"launch_site_code":null,"launch_vehicle":null,"mission":null,"orbit_class":"UNKNOWN","rcs_meters":null,"size_class":null,"mass_kg":null,"dimensions":null,"purposes":[],"wikipedia_slug":null,"has_3d_model":false,"image_url":null,"decayed_at":null,"tle_current":{"epoch":"2026-05-23T19:08:19.046688Z","epoch_age_seconds":182172,"freshness":"STALE","line1":"1 87245U          26143.79744267  .00003292  00000+0  67765-3 0  9997","line2":"2 87245  65.6405 333.8094 0426434  40.0616 336.7675 14.17502928637163","mean_motion":14.17502928,"eccentricity":0.0426434,"inclination_deg":65.6405,"raan_deg":333.8094,"arg_perigee_deg":40.0616,"mean_anomaly_deg":336.7675,"bstar":0.00067765,"rev_number":63716,"period_min":101.58709174814,"perigee_km":526.26814023192,"apogee_km":1141.3520288414,"semimajor_km":7211.9470845367,"source":"CELESTRAK","updated_at":"2026-05-25T13:38:11.665948Z"}}}